This is the latest recevied weather packets stored in our database for station/object K8WEH. If no packets are shown the sender has not sent any weather packets the latest 10 day(s).
| Time | Temp. | Humidity | Pressure | Rain* | Wind** | Luminosity | Snow |
|---|---|---|---|---|---|---|---|
| 1778090116 | 12.78° C | 76% | 1013.5 hPa | 0 mm | - | - | - |
| 1778089815 | 12.78° C | 75% | 1013.5 hPa | 0 mm | - | - | - |
| 1778089514 | 12.78° C | 75% | 1013.4 hPa | 0 mm | - | - | - |
| 1778089214 | 12.22° C | 75% | 1013.6 hPa | 0 mm | - | - | - |
| 1778088914 | 12.22° C | 74% | 1013.7 hPa | 0 mm | - | - | - |
| 1778088614 | 12.78° C | 73% | 1013.9 hPa | 0 mm | - | - | - |
| 1778088311 | 12.22° C | 70% | 1014 hPa | 0 mm | - | - | - |
| 1778088014 | 12.22° C | 71% | 1014.1 hPa | 0 mm | - | - | - |
| 1778087711 | 11.67° C | 67% | 1013.9 hPa | 0 mm | - | - | - |
| 1778087412 | 11.67° C | 69% | 1013.8 hPa | 0 mm | - | - | - |
| 1778087110 | 11.67° C | 66% | 1013.7 hPa | 0 mm | - | - | - |
| 1778086811 | 11.67° C | 59% | 1013.7 hPa | 0 mm | - | - | - |
| 1778086511 | 11.11° C | 65% | 1013.8 hPa | 0 mm | - | - | - |
| 1778086211 | 11.11° C | 66% | 1014 hPa | 0 mm | - | - | - |
| 1778085909 | 11.11° C | 64% | 1013.9 hPa | 0 mm | - | - | - |
| 1778085608 | 11.11° C | 61% | 1014 hPa | 0 mm | - | - | - |
| 1778085307 | 11.11° C | 56% | 1013.9 hPa | 0 mm | - | - | - |
| 1778085009 | 11.11° C | 53% | 1014 hPa | 0 mm | - | - | - |
| 1778084705 | 11.11° C | 52% | 1014 hPa | 0 mm | - | - | - |
| 1778084404 | 11.11° C | 53% | 1013.9 hPa | 0 mm | - | - | - |
| 1778084106 | 11.11° C | 51% | 1013.8 hPa | 0 mm | - | - | - |
| 1778083803 | 10.56° C | 51% | 1013.9 hPa | 0 mm | - | - | - |
| 1778083502 | 10.56° C | 50% | 1013.7 hPa | 0 mm | - | - | - |
| 1778083202 | 10.56° C | 48% | 1013.8 hPa | 0 mm | - | - | - |
| 1778082901 | 10.56° C | 47% | 1013.6 hPa | 0 mm | - | - | - |
* Rain latest hour (hover to see other rain measurements)
** Current wind speed in m/s (hover to see current wind gust speed)